Location: Cerbedi�res
(48.2182°N, 1.4849°W)
Time: 16:50:04
(UTC+00:00)

Cosmos 1727 Rocket - Pass Details

Date: 03 March 2021
Orbit: 962 x 996 km, 82.9° (Epoch: 20 April)

Event Time Altitude Azimuth Distance (km) Brightness Sun altitude
Rises 20:26:43 0° 349° (N) 3,659 7.4 -25.9°
Reaches altitude 10° 20:29:13 10° 348° (NNW) 2,710 6.7 -26.3°
Maximum altitude 20:35:24 77° 264° (W) 994 4.0 -27.3°
Enters shadow 20:37:41 41° 187° (S) 1,364 4.6 -27.6°
